[[{"header":{"parameterUnit":"m.s-1","parameterCategory":1,"la1":30.2991,"la2":30.254,"lo1":-89.0895,"lo2":-89.0444,"dy":0.0017,"dx":0.0017,"nx":28,"ny":28,"refTime":"2023-09-13T09:00:00:Z","depth":0,"parameterNumber":2,"parameterNumberName":"U-component_of_WINDS"},"data":[0,0,0,0,0,0,0,0,0,0,0,0,0,0,0,0,0,0,0,0,0,0,0,0,0,0,0,0,0,0,0,0,0,0,0,0,0,0,0,0,0,0,0,0,0,0,0,0,0,0,0,0,0,0,0,0,0,0,-1.7001,-1.7,0,-1.6886,-1.6884,-1.6883,-1.681,-1.6809,-1.6809,-1.6809,-1.6684,-1.6681,-1.6678,0,0,0,0,0,0,0,0,0,0,0,0,0,-1.7151,-1.7149,-1.7001,-1.7,-1.6999,-1.6886,-1.6884,-1.6883,-1.681,-1.6809,-1.6809,-1.6808,-1.6685,-1.6681,-1.6678,0,0,0,0,0,0,0,0,0,0,0,0,0,-1.7066,-1.7148,-1.7002,-1.6949,-1.6943,-1.6886,-1.6884,-1.6882,-1.681,-1.6809,-1.6809,-1.6808,-1.6686,-1.6682,-1.6677,-1.6662,0,0,-1.6664,-1.6662,0,0,0,0,0,0,0,0,-1.7071,-1.706,-1.6958,-1.6952,-1.6946,-1.6862,-1.6891,-1.6808,-1.681,-1.686,-1.6809,-1.6808,-1.6743,-1.6734,-1.6713,-1.6657,-1.6651,-1.6664,-1.6661,-1.6659,-1.6658,0,0,0,0,0,0,0,-1.7077,-1.7065,-1.6955,-1.6957,-1.6949,-1.6928,-1.6915,-1.6875,-1.6806,-1.6856,-1.685,-1.6838,-1.674,-1.6718,-1.671,-1.6649,-1.6664,-1.666,-1.6657,-1.6655,-1.6569,-1.657,0,0,0,0,0,0,-1.7092,-1.707,-1.6959,-1.6952,-1.7008,-1.6926,-1.6912,-1.6889,-1.6807,-1.6794,-1.6839,-1.6835,-1.6726,-1.6715,-1.6705,-1.668,-1.6659,-1.6655,-1.6652,-1.6569,-1.657,-1.657,0,0,0,0,0,0,-1.7096,-1.7083,-1.6964,-1.701,-1.6993,-1.6924,-1.6899,-1.6887,-1.6865,-1.6794,-1.678,-1.683,-1.6725,-1.6712,-1.6673,-1.6674,-1.6653,-1.6649,-1.6569,-1.6569,-1.657,-1.663,0,0,0,0,0,0,-1.71,-1.7085,-1.708,-1.701,-1.6991,-1.6936,-1.6899,-1.6885,-1.6859,-1.6853,-1.6782,-1.6769,-1.6723,-1.668,-1.6669,-1.6668,-1.6645,-1.6568,-1.6569,-1.657,-1.6628,-1.6633,-1.6637,0,0,0,0,0,-1.7106,-1.7101,-1.7081,-1.7068,-1.6984,-1.6937,-1.6925,-1.6874,-1.6859,-1.6853,-1.6806,-1.6771,-1.6676,-1.6677,-1.6663,-1.6661,-1.6568,-1.6569,-1.657,-1.6626,-1.6632,-1.6637,0,0,0,0,0,0,-1.7172,-1.7091,-1.7067,-1.7041,-1.6996,-1.6925,-1.6915,-1.6883,-1.684,-1.6837,-1.6773,-1.6757,-1.6725,-1.6689,-1.6691,-1.664,-1.6618,-1.6616,-1.6665,-1.667,-1.6675,-1.6683,-1.6642,0,0,0,0,0,-1.7184,-1.7155,-1.7084,-1.7067,-1.7047,-1.6985,-1.6962,-1.6927,-1.6877,-1.6857,-1.6808,-1.6759,-1.6718,-1.6692,-1.665,-1.6622,-1.6603,-1.6613,-1.6618,-1.6622,-1.6621,-1.66,-1.6603,-1.6573,-1.6573,-1.6573,0,0,-1.7208,-1.716,-1.7145,-1.708,-1.7041,-1.7009,-1.697,-1.6938,-1.6912,-1.6852,-1.6813,-1.6774,-1.6715,-1.6681,-1.6664,-1.665,-1.6625,-1.6623,-1.6627,-1.6624,-1.6601,-1.6604,-1.6606,-1.6573,-1.6573,-1.6573,0,0,-1.7234,-1.7197,-1.7177,-1.7139,-1.7081,-1.704,-1.7035,-1.6967,-1.694,-1.69,-1.6853,-1.682,-1.6751,-1.671,-1.668,-1.6688,-1.6653,-1.6676,-1.67,-1.668,-1.6682,-1.6684,-1.6684,-1.6685,-1.6675,-1.6675,-1.6675,0,-1.7271,-1.7223,-1.7171,-1.7141,-1.7112,-1.7057,-1.7034,-1.6999,-1.693,-1.691,-1.6897,-1.6807,-1.6763,-1.6717,-1.6719,-1.6698,-1.6687,-1.6684,-1.6686,-1.6687,-1.6688,-1.6687,-1.6688,-1.6678,-1.6678,-1.6677,-1.6677,0,-1.7269,-1.7236,-1.7227,-1.7163,-1.7132,-1.7107,-1.7047,-1.7023,-1.6989,-1.6948,-1.6905,-1.6851,-1.6796,-1.6782,-1.6749,-1.673,-1.6723,-1.6699,-1.6675,-1.6695,-1.6693,-1.6693,-1.6682,-1.6681,-1.668,-1.668,0,0,-1.7335,-1.7241,-1.7239,-1.7207,-1.7138,-1.711,-1.708,-1.7028,-1.7007,-1.696,-1.6931,-1.6872,-1.6849,-1.6815,-1.6775,-1.6758,-1.6764,-1.6735,-1.6733,-1.6741,-1.6736,-1.6754,-1.6755,-1.6741,-1.674,-1.674,-1.674,0,-1.735,-1.7296,-1.7247,-1.721,-1.7176,-1.7122,-1.7095,-1.7048,-1.7008,-1.6972,-1.6926,-1.6885,-1.6858,-1.6837,-1.6817,-1.6768,-1.6762,-1.6767,-1.671,-1.6709,-1.6726,-1.6754,-1.6774,-1.6777,-1.674,-1.6739,-1.6739,0,-1.7361,-1.7318,-1.7278,-1.7209,-1.7193,-1.7171,-1.7117,-1.7084,-1.7028,-1.6999,-1.696,-1.6919,-1.6881,-1.6861,-1.6805,-1.681,-1.6783,-1.6755,-1.6753,-1.6745,-1.6725,-1.6745,-1.6777,-1.6777,-1.6738,-1.6738,-1.6738,0,-1.7411,-1.7342,-1.7309,-1.7284,-1.7204,-1.7189,-1.7154,-1.7097,-1.7068,-1.702,-1.6999,-1.6947,-1.6918,-1.6876,-1.682,-1.6811,-1.6769,-1.6745,-1.6742,-1.6743,-1.6735,-1.6736,-1.6761,-1.672,-1.672,-1.672,-1.672,0,-1.7432,-1.7409,-1.733,-1.7309,-1.728,-1.7222,-1.7194,-1.7154,-1.7104,-1.7072,-1.702,-1.6991,-1.6919,-1.688,-1.6835,-1.6794,-1.6782,-1.6755,-1.6744,-1.6759,-1.6763,-1.674,-1.6738,-1.672,-1.672,-1.672,-1.672,0,-1.7483,-1.7429,-1.7389,-1.7316,-1.7297,-1.7279,-1.7215,-1.7191,-1.7147,-1.7107,-1.7094,-1.7024,-1.6975,-1.6915,-1.6846,-1.6816,-1.6778,-1.6762,-1.6798,-1.6791,-1.679,-1.679,-1.6801,-1.6798,-1.6761,-1.6762,-1.6762,0,-1.7499,-1.748,-1.7406,-1.7382,-1.7349,-1.7311,-1.728,-1.7221,-1.7191,-1.7124,-1.7107,-1.7054,-1.7009,-1.6931,-1.6873,-1.6819,-1.6799,-1.6806,-1.679,-1.6806,-1.6796,-1.6798,-1.6794,-1.681,-1.6811,-1.6812,-1.6812,0,-1.7533,-1.7507,-1.7467,-1.7417,-1.7383,-1.7339,-1.7294,-1.7276,-1.7206,-1.7174,-1.7124,-1.7089,-1.7018,-1.6965,-1.6903,-1.6864,-1.6825,-1.6818,-1.6813,-1.6829,-1.685,-1.6836,-1.6808,-1.6817,-1.6817,-1.6817,-1.6816,-1.6816,-1.7566,-1.7546,-1.749,-1.7445,-1.7405,-1.7363,-1.7336,-1.7289,-1.7247,-1.7187,-1.7153,-1.7103,-1.7043,-1.6956,-1.6918,-1.6875,-1.6861,-1.6856,-1.6854,-1.6854,-1.6858,-1.6858,-1.6864,-1.6863,-1.6863,-1.6863,-1.6863,0,-1.7596,-1.7557,-1.7517,-1.7455,-1.7419,-1.7388,-1.7335,-1.7307,-1.7264,-1.7213,-1.7169,-1.7109,-1.7057,-1.6994,-1.6936,-1.6914,-1.6894,-1.69,-1.6901,-1.6892,-1.6874,-1.6883,-1.6917,-1.6917,-1.6917,-1.6917,-1.6917,-1.6917,-1.7607,-1.757,-1.7537,-1.7478,-1.7438,-1.7391,-1.7363,-1.7322,-1.7281,-1.7218,-1.7174,-1.7134,-1.7077,-1.7014,-1.6963,-1.6945,-1.6925,-1.6936,-1.6913,-1.6898,-1.6893,-1.6889,-1.6896,-1.6933,-1.6933,-1.6934,-1.6934,-1.6934]},{"header":{"parameterUnit":"m.s-1","parameterCategory":1,"la1":30.2991,"la2":30.254,"lo1":-89.0895,"lo2":-89.0444,"dy":0.0017,"dx":0.0017,"nx":28,"ny":28,"refTime":"2023-09-13T09:00:00:Z","depth":0,"parameterNumber":3,"parameterNumberName":"V-component_of_WINDS"},"data":[0,0,0,0,0,0,0,0,0,0,0,0,0,0,0,0,0,0,0,0,0,0,0,0,0,0,0,0,0,0,0,0,0,0,0,0,0,0,0,0,0,0,0,0,0,0,0,0,0,0,0,0,0,0,0,0,0,0,-5.3517,-5.3518,0,-5.361,-5.3611,-5.3612,-5.3591,-5.3589,-5.3588,-5.3586,-5.3674,-5.3678,-5.3682,0,0,0,0,0,0,0,0,0,0,0,0,0,-5.3314,-5.3318,-5.3517,-5.3518,-5.3519,-5.361,-5.3611,-5.3612,-5.3591,-5.3589,-5.3587,-5.3585,-5.3673,-5.3678,-5.3683,0,0,0,0,0,0,0,0,0,0,0,0,0,-5.3404,-5.3319,-5.3517,-5.352,-5.3521,-5.3609,-5.3611,-5.3613,-5.3592,-5.3589,-5.3587,-5.3584,-5.3672,-5.3677,-5.3683,-5.3772,0,0,-5.3702,-5.3704,0,0,0,0,0,0,0,0,-5.3399,-5.3411,-5.3518,-5.352,-5.3521,-5.3586,-5.3572,-5.3666,-5.3592,-5.3565,-5.3586,-5.3583,-5.3647,-5.3655,-5.3678,-5.3776,-5.378,-5.3702,-5.3706,-5.3708,-5.371,0,0,0,0,0,0,0,-5.3393,-5.3407,-5.3553,-5.352,-5.3522,-5.3514,-5.3524,-5.359,-5.3619,-5.3567,-5.3566,-5.3577,-5.3647,-5.3672,-5.368,-5.3781,-5.3702,-5.3707,-5.3711,-5.3713,-5.3955,-5.3958,0,0,0,0,0,0,-5.3386,-5.3402,-5.355,-5.3556,-5.3453,-5.352,-5.3531,-5.3568,-5.3618,-5.3624,-5.3579,-5.3576,-5.3663,-5.3673,-5.3683,-5.3788,-5.3708,-5.3714,-5.3717,-5.3952,-5.3956,-5.3959,0,0,0,0,0,0,-5.3382,-5.3399,-5.3547,-5.3479,-5.3497,-5.3526,-5.3568,-5.3571,-5.3596,-5.3628,-5.3632,-5.36,-5.3661,-5.3674,-5.375,-5.3791,-5.3716,-5.3722,-5.3949,-5.3953,-5.3957,-5.4,0,0,0,0,0,0,-5.3376,-5.3398,-5.3434,-5.348,-5.3501,-5.3615,-5.3571,-5.3575,-5.3607,-5.3604,-5.3648,-5.3653,-5.366,-5.3741,-5.3756,-5.3798,-5.3727,-5.3945,-5.3951,-5.3956,-5.3995,-5.4006,-5.4014,0,0,0,0,0,-5.3369,-5.3441,-5.3436,-5.3454,-5.3546,-5.3617,-5.3629,-5.3638,-5.3611,-5.3645,-5.3666,-5.3651,-5.3785,-5.3749,-5.3766,-5.381,-5.3943,-5.3949,-5.3956,-5.3991,-5.4004,-5.4014,0,0,0,0,0,0,-5.3396,-5.3447,-5.3442,-5.3532,-5.3571,-5.3614,-5.3658,-5.3651,-5.3697,-5.3691,-5.3698,-5.3708,-5.3785,-5.3805,-5.3765,-5.3897,-5.3859,-5.3869,-5.3881,-5.3893,-5.3902,-5.3894,-5.3731,0,0,0,0,0,-5.3414,-5.3469,-5.351,-5.3585,-5.3605,-5.3628,-5.3659,-5.3663,-5.3703,-5.3718,-5.3744,-5.3781,-5.3831,-5.3863,-5.3911,-5.3999,-5.4007,-5.4037,-5.4047,-5.4055,-5.4062,-5.4107,-5.4121,-5.398,-5.398,-5.398,0,0,-5.3448,-5.3483,-5.3517,-5.3591,-5.3622,-5.3676,-5.3642,-5.3702,-5.3741,-5.3726,-5.38,-5.382,-5.3862,-5.3943,-5.3981,-5.3962,-5.4103,-5.4063,-5.4069,-5.4072,-5.4115,-5.4129,-5.414,-5.3984,-5.3984,-5.3983,0,0,-5.3539,-5.3572,-5.3637,-5.3669,-5.3717,-5.3732,-5.3748,-5.3792,-5.3806,-5.388,-5.3869,-5.3916,-5.4003,-5.4032,-5.4058,-5.4161,-5.4148,-5.4176,-5.4224,-5.4269,-5.428,-5.4289,-5.4323,-5.4335,-5.4184,-5.4184,-5.4184,0,-5.3575,-5.3659,-5.3671,-5.3732,-5.3764,-5.3756,-5.382,-5.385,-5.391,-5.393,-5.391,-5.4018,-5.4046,-5.4133,-5.4158,-5.4181,-5.4196,-5.417,-5.4278,-5.4288,-5.4297,-5.4329,-5.4342,-5.4187,-5.4187,-5.4187,-5.4186,0,-5.37,-5.3759,-5.3805,-5.3866,-5.3903,-5.3965,-5.3984,-5.402,-5.4021,-5.4038,-5.4112,-5.4145,-5.4199,-5.422,-5.4221,-5.4307,-5.4294,-5.4276,-5.4238,-5.4313,-5.4343,-5.4356,-5.4191,-5.419,-5.4189,-5.4189,0,0,-5.3808,-5.3875,-5.3892,-5.3918,-5.3971,-5.4015,-5.4076,-5.4131,-5.416,-5.4202,-5.4251,-5.4325,-5.4309,-5.4338,-5.4342,-5.4382,-5.4457,-5.4358,-5.4359,-5.4373,-5.4551,-5.4562,-5.4577,-5.4451,-5.4453,-5.4455,-5.4547,0,-5.3901,-5.4012,-5.4024,-5.4121,-5.4174,-5.4167,-5.422,-5.4256,-5.4274,-5.4319,-5.4337,-5.4388,-5.4364,-5.4382,-5.4421,-5.444,-5.4493,-5.4434,-5.4493,-5.4495,-5.448,-5.4593,-5.4605,-5.469,-5.4559,-5.4561,-5.4562,0,-5.4024,-5.4071,-5.4174,-5.4218,-5.4241,-5.4289,-5.4339,-5.4384,-5.4424,-5.4433,-5.4467,-5.4466,-5.4527,-5.4489,-5.457,-5.453,-5.4555,-5.4568,-5.4572,-5.4575,-5.4531,-5.4596,-5.4717,-5.4729,-5.4582,-5.458,-5.4579,0,-5.4089,-5.4178,-5.4251,-5.4274,-5.4329,-5.4362,-5.4385,-5.4424,-5.4455,-5.4499,-5.4519,-5.4568,-5.4594,-5.4632,-5.4643,-5.4615,-5.4723,-5.4686,-5.473,-5.4729,-5.475,-5.4748,-5.4874,-5.4772,-5.4772,-5.4772,-5.4771,0,-5.419,-5.4252,-5.4281,-5.4325,-5.4394,-5.4408,-5.4475,-5.4496,-5.453,-5.4577,-5.4574,-5.4617,-5.4631,-5.4676,-5.4685,-5.475,-5.4762,-5.4769,-5.477,-5.4768,-5.4767,-5.4782,-5.4775,-5.4775,-5.4774,-5.4774,-5.4773,0,-5.4272,-5.4295,-5.4373,-5.4419,-5.4432,-5.448,-5.4518,-5.4559,-5.4577,-5.4635,-5.465,-5.4676,-5.4728,-5.4744,-5.4807,-5.4813,-5.4888,-5.4885,-5.4875,-5.4874,-5.4915,-5.491,-5.5053,-5.5071,-5.496,-5.4961,-5.4962,0,-5.4334,-5.4382,-5.4433,-5.4465,-5.4491,-5.4542,-5.4575,-5.459,-5.4624,-5.4674,-5.4708,-5.4761,-5.4804,-5.4888,-5.491,-5.4958,-5.4954,-5.5001,-5.4961,-5.4957,-5.4951,-5.4947,-5.4951,-5.5008,-5.5009,-5.501,-5.5011,0,-5.4439,-5.4448,-5.4497,-5.4549,-5.4589,-5.4631,-5.4671,-5.4696,-5.4717,-5.4754,-5.4809,-5.4843,-5.4908,-5.4959,-5.5007,-5.5029,-5.5022,-5.5024,-5.5036,-5.5032,-5.5023,-5.5025,-5.4892,-5.5019,-5.5019,-5.5018,-5.5017,-5.5017,-5.4511,-5.4552,-5.4595,-5.4649,-5.4681,-5.4719,-5.476,-5.4783,-5.483,-5.4885,-5.4891,-5.4949,-5.4987,-5.5052,-5.5076,-5.512,-5.5106,-5.5124,-5.5128,-5.5132,-5.5134,-5.5019,-5.513,-5.5129,-5.5129,-5.5129,-5.5129,0,-5.4613,-5.4641,-5.4691,-5.4747,-5.4789,-5.4783,-5.4827,-5.4861,-5.4914,-5.4951,-5.4994,-5.5056,-5.5105,-5.5133,-5.5182,-5.5212,-5.521,-5.5224,-5.522,-5.5224,-5.5145,-5.5128,-5.5225,-5.5225,-5.5225,-5.5225,-5.5225,-5.5224,-5.4671,-5.4741,-5.4755,-5.4839,-5.4866,-5.4925,-5.495,-5.4984,-5.5014,-5.5084,-5.5126,-5.5145,-5.5177,-5.5229,-5.5273,-5.528,-5.5296,-5.5312,-5.5316,-5.524,-5.523,-5.5221,-5.5205,-5.5316,-5.5316,-5.5392,-5.5392,-5.5393]}]]